Location: Schommer Observatory
(40.5200°N, 74.4500°W)
Time: 09:52:47
(UTC-04:00)

Vanguard 1 Rocket - Visible Passes

Search period start: 22 October 2017 00:00
Search period end: 01 November 2017 00:00
Orbit: 655 x 4222 km, 34.3° (Epoch: 21 October)

Date Brightness Start Highest point End Pass type
(mag) Time Alt. Az. Time Alt. Az. Time Alt. Az.
22 Oct 10.6 04:33:22 10° S 04:40:04 15° SSE 04:45:03 10° ESE visible
23 Oct 11.1 03:25:51 10° SSE 03:27:56 10° SSE 03:29:51 10° SE visible
23 Oct 9.8 05:45:30 10° SSW 05:55:05 28° SSE 06:00:59 10° ESE visible
24 Oct 10.3 04:33:24 10° SSW 04:43:22 22° SSE 04:49:54 10° ESE visible
25 Oct 10.8 03:25:55 14° S 03:31:13 17° SSE 03:37:41 10° ESE visible
25 Oct 9.5 05:47:13 10° SW 05:58:22 35° SSE 06:04:46 10° E visible
26 Oct 11.2 02:19:37 11° SE 02:19:37 11° SE 02:21:47 10° SE visible
26 Oct 10.1 04:36:59 15° SSW 04:46:38 30° SSE 04:54:02 10° ESE visible
27 Oct 10.5 03:30:33 21° S 03:34:27 23° SSE 03:42:36 10° ESE visible
27 Oct 9.3 05:49:15 10° SW 06:01:37 43° SSE 06:08:22 10° E visible
28 Oct 11.0 02:24:01 16° SE 02:24:01 16° SE 02:29:43 10° ESE visible
28 Oct 9.8 04:41:21 21° SSW 04:49:52 37° SSE 04:57:50 10° E visible
29 Oct 10.3 03:34:43 29° S 03:37:38 31° SSE 03:46:47 10° E visible
29 Oct 9.1 05:52:03 11° WSW 06:04:51 51° S 06:11:52 10° E visible
30 Oct 10.8 02:27:59 22° SE 02:27:59 22° SE 02:34:48 10° ESE visible
30 Oct 9.6 04:45:19 27° SW 04:53:02 45° SSE 05:01:26 10° E visible
31 Oct 10.1 03:38:31 37° S 03:40:44 38° SSE 03:50:36 10° E visible
31 Oct 9.0 05:55:50 14° WSW 06:08:03 57° S 06:15:18 10° E visible
